CAPE
1055 896 567 244 234 491 732 692 732 738 832 725 978 1185 1227 1213 1200 1090 1248 1288 1132 728 543 465 411 227 194 157 244 414 278 49 494 595 846 865 1423 2192 2331 2113 2060 1924 1823 1378 1191 980 909 1016 801 867 587 321 257 610 410 320 355 168 250 151 107 116 95 63 32 16 16 10 7 7 6 3 2 1 2 3 2 2 6 6 4 4 4 1 2
969 865 636 537 416 542 628 490 566 743 692 667 756 996 1004 884 809 1005 1208 1144 984 965 1007 822 617 278 303 530 675 646 544 79 727 753 725 958 1475 1878 2384 2202 2054 1916 1887 1552 1317 1248 1197 1018 918 993 809 591 358 280 454 378 318 388 460 381 235 180 181 130 90 17 16 11 5 7 5 2 0 3 5 5 7 5 2 1 5 6 3 0 0
1161 941 855 719 585 598 477 441 437 438 345 492 584 751 950 1038 982 872 807 806 730 640 532 604 534 514 622 812 988 915 736 450 322 398 818 904 1372 1802 2271 2285 2018 1778 1665 1679 1442 1303 1232 1028 1063 984 832 737 598 399 481 512 480 300 989 713 486 358 259 224 148 24 8 5 2 2 1 3 3 5 7 9 20 10 8 4 2 4 4 2 2
1128 1126 1038 906 836 750 715 645 616 501 469 468 444 522 690 945 1127 1096 1012 954 836 628 564 694 843 570 407 969 1077 900 530 297 316 289 450 717 972 1528 2119 2167 2227 1987 1779 1588 1667 1621 1331 1141 995 1062 1006 889 906 652 622 645 569 486 1025 923 742 589 466 352 243 114 45 3 1 1 2 1 0 0 0 5 70 73 62 40 17 15 7 3 3
1182 1143 1511 1064 908 1004 880 810 783 705 698 776 842 827 813 1104 1077 1052 928 889 830 780 748 863 894 828 880 1039 584 128 279 439 298 269 252 427 743 935 1711 2036 2098 2374 2103 1898 1793 1709 1722 1250 1140 1122 1137 993 1009 894 765 754 712 664 909 919 967 829 609 492 384 224 138 84 46 31 26 8 2 2 1 2 29 269 266 191 135 110 23 4 2
1427 1154 1291 1184 944 991 1060 976 922 864 931 1067 1140 861 1030 965 950 750 911 710 754 726 700 667 603 607 600 726 831 536 366 329 234 274 295 327 384 709 822 1359 1514 1732 1958 2209 1985 1817 1786 1729 1596 1229 1210 1113 1038 1102 1006 899 792 759 728 1018 1022 834 752 654 538 408 306 259 175 130 99 73 49 42 24 45 37 148 252 272 216 200 161 8 4
1111 928 1186 1154 1047 1044 1079 1021 944 916 1182 1460 1077 966 1015 1104 890 756 708 772 812 781 898 776 687 604 707 747 680 544 459 493 270 260 290 211 226 404 607 563 728 1071 1437 1724 1966 1935 1830 1928 1757 1674 1586 1442 1069 1057 1083 1020 912 896 770 1113 1070 914 884 812 727 642 548 490 403 290 210 131 101 93 163 52 26 60 113 218 225 219 195 72 20
1041 827 645 758 986 1018 813 955 1033 987 1242 1465 1132 1111 949 706 1020 781 796 908 1018 912 872 801 692 569 717 815 748 588 453 498 543 472 359 352 369 368 457 510 568 738 1255 1199 1404 1654 2034 1941 2029 1876 1772 1708 1491 1083 1218 1146 1138 1008 1006 984 1251 1196 992 962 966 910 807 740 644 530 400 302 184 144 179 105 75 69 113 137 168 168 218 230 171
891 1045 803 791 922 706 974 979 953 1068 1241 1110 1037 798 900 829 1001 1007 1027 1049 883 827 804 683 672 617 545 506 482 532 832 576 370 608 654 592 558 490 462 448 650 1256 1032 888 938 1188 1956 2018 1994 2131 2026 1918 1859 1672 1258 1242 1355 1284 1223 1151 1081 1136 1216 1208 1175 1106 1016 912 870 752 615 506 390 294 249 207 160 156 174 156 156 181 130 91 162
613 786 804 1369 1114 664 713 696 878 756 624 807 660 654 787 914 844 1001 1167 1015 763 739 746 698 580 537 512 472 418 388 467 730 1041 1403 929 763 581 462 494 534 410 650 884 910 777 785 982 1770 2066 2099 2094 2026 2002 1993 1909 1532 1356 1456 1325 1207 1164 1123 1289 1274 1265 1059 1096 1090 1008 898 800 715 614 528 449 402 297 256 240 213 194 198 197 136 120
496 653 515 772 517 549 719 545 750 817 731 735 700 635 795 847 668 712 724 661 676 718 751 689 620 572 462 427 391 483 638 652 949 1239 1066 871 791 639 431 385 328 439 814 1072 941 661 613 860 1622 1806 1844 2190 2070 2034 2081 2057 1817 1394 1426 1376 1373 1409 1477 1372 1310 1302 1205 1188 1092 1050 995 895 812 747 673 592 474 399 355 344 344 320 298 274 231
409 462 588 526 477 499 632 635 781 874 823 633 673 642 686 657 577 628 662 617 708 571 512 506 475 484 467 254 87 136 432 724 836 1041 1036 916 778 646 606 576 483 448 918 1060 880 776 675 494 794 1312 1600 1828 2176 2053 2040 2094 2091 1964 1597 1594 1193 1346 1538 1478 1460 1423 1369 1310 1212 1156 1096 1026 941 859 810 740 725 644 548 514 525 524 504 473 419
418 390 456 558 439 515 539 524 506 608 702 753 777 706 769 870 606 601 666 651 578 450 315 394 411 390 21 2 0 7 362 850 808 841 866 808 774 808 857 762 643 609 505 595 863 683 843 743 690 804 1195 1402 1609 2083 2070 2029 1998 2064 2059 1635 1278 1280 1507 1539 1362 1131 1111 1161 1113 1109 1147 1153 1034 966 932 862 799 761 728 680 694 692 678 687 687
338 456 470 224 224 113 364 430 407 440 577 618 817 1449 901 692 728 759 689 584 563 179 445 443 452 334 199 34 0 0 29 528 789 929 902 826 797 880 929 967 760 538 470 440 452 706 921 1246 1126 809 1045 1205 1252 1371 1740 1942 1960 1937 2061 1991 1301 1342 1431 1350 1214 1169 1134 1118 1084 1035 1116 1059 1064 1064 1095 1029 864 784 738 646 653 511 564 686 789
327 528 640 460 264 106 153 76 320 418 370 406 467 484 619 696 747 767 745 604 620 614 540 131 490 389 296 31 0 0 0 0 530 474 652 784 790 890 919 927 925 546 371 462 505 340 572 950 1325 1295 1490 1629 1472 1305 1277 1424 1651 1787 1939 2068 1745 1663 1641 1348 1326 1188 1345 1265 1128 995 1040 1018 1083 1109 1093 1099 982 857 799 689 659 676 674 655 666
644 499 667 542 353 312 320 140 109 263 303 350 377 340 373 546 659 666 703 803 667 592 757 465 375 383 300 194 0 0 0 0 0 0 1 504 810 1042 867 803 810 651 372 445 617 616 515 526 717 722 986 1238 1523 1774 1712 1503 1250 1296 1683 1586 1512 1275 1451 1765 1334 1168 1266 1192 1172 1060 872 1117 1099 1184 1238 1176 853 832 719 732 773 741 741 736 686
921 760 711 617 442 472 486 398 405 400 413 262 93 191 268 614 668 605 614 538 575 551 559 523 455 469 368 173 26 0 0 0 0 0 48 187 642 1017 932 806 796 647 557 588 701 658 597 674 634 585 660 879 1042 1237 1332 1418 1475 1502 1383 1373 1242 1065 1086 1341 1465 1227 1161 1085 1050 1071 975 881 988 992 997 934 813 799 707 776 828 828 806 787 769
1068 938 806 796 670 634 604 553 552 598 601 555 444 416 173 349 490 583 588 536 442 612 652 628 567 582 443 27 0 18 39 161 0 0 0 0 84 784 890 812 714 736 697 641 648 586 637 710 673 604 521 735 866 907 937 1057 1215 1287 1313 1417 1337 1228 1102 1117 1599 1513 1170 1120 1029 959 925 900 934 1049 869 884 983 977 776 758 778 683 727 756 652
846 839 842 763 798 828 739 705 658 672 764 653 535 521 522 469 413 320 311 381 416 401 468 555 527 454 426 295 339 393 128 3 337 0 0 0 0 109 873 799 744 754 766 681 571 467 445 396 366 352 99 524 763 827 856 872 816 868 1000 1102 1118 1092 1086 1096 1124 1372 1191 1042 954 805 782 958 946 918 876 808 1046 1017 743 821 722 703 758 695 786
160 260 402 367 700 680 782 758 670 656 1033 848 694 623 605 602 652 746 778 716 703 652 609 555 610 552 487 345 154 416 160 4 55 56 45 0 0 0 54 460 619 658 688 640 548 423 62 359 405 353 215 313 515 546 624 665 698 827 1035 1096 1151 988 944 985 1036 1137 1193 1026 923 897 719 815 875 891 890 851 878 761 669 735 752 766 785 722 698
0 6 19 27 294 394 515 468 452 463 1153 966 783 702 683 700 744 862 920 907 899 893 797 746 703 729 502 421 356 256 18 11 2 0 0 0 0 0 0 138 412 525 528 524 431 74 202 155 503 509 405 420 525 502 519 554 581 650 667 907 1108 1065 949 1014 1181 1098 1097 1028 916 864 692 848 902 851 896 850 970 802 690 804 750 740 668 579 524
0 0 0 0 0 126 173 133 142 310 863 606 628 646 710 817 855 874 854 748 748 842 905 812 645 485 46 371 367 390 316 0 147 193 223 0 0 0 0 9 157 246 422 452 212 190 381 366 435 593 574 520 531 530 484 507 463 467 557 780 1029 975 964 837 821 870 986 873 718 669 771 762 808 848 811 871 768 746 709 712 805 662 632 617 577
0 0 0 0 0 52 0 2 94 307 260 154 266 499 647 858 942 826 602 548 630 794 845 740 533 325 191 278 375 200 313 223 0 25 165 99 0 0 0 0 0 5 74 352 399 386 458 463 436 583 534 473 486 506 532 561 526 507 620 640 702 711 660 590 644 554 615 788 764 684 658 706 748 754 734 658 731 725 713 696 760 715 759 643 329
0 0 0 0 0 0 0 0 0 0 0 28 74 182 484 761 768 680 651 632 653 766 679 571 497 355 442 320 234 231 290 274 336 192 0 0 0 0 0 0 0 8 60 332 402 535 495 516 476 503 530 500 493 486 387 434 470 503 582 573 573 516 495 520 458 440 437 491 570 517 582 611 696 598 592 601 585 562 555 564 540 506 410 272 372
0 0 0 0 0 0 0 0 0 0 0 0 0 0 78 482 615 640 682 710 742 717 597 482 406 424 527 532 410 360 284 251 326 282 331 37 0 0 0 0 0 0 17 352 568 582 536 528 503 503 561 535 454 0 0 376 385 357 373 366 35 110 290 238 192 122 167 381 374 227 448 421 412 369 304 425 393 377 311 318 353 327 193 198 354
0 0 0 0 0 0 0 0 0 0 0 0 0 0 0 139 541 611 678 712 679 583 486 450 459 486 513 455 438 372 323 342 296 339 369 269 88 74 63 0 0 0 10 296 539 575 574 522 495 517 574 505 77 0 0 16 313 309 154 0 83 241 202 184 62 19 1 106 191 109 227 219 156 182 160 146 214 177 184 155 139 136 115 137 158
0 0 0 0 0 0 0 0 0 0 0 0 0 0 0 2 196 582 636 477 400 396 422 466 499 501 496 482 461 405 383 349 372 300 277 324 278 258 224 139 0 0 0 165 325 504 627 486 488 481 530 465 358 0 0 0 0 0 0 0 0 41 12 2 0 0 0 0 0 0 17 0 1 33 24 22 0 0 0 0 0 0 67 78 76
0 0 0 0 0 0 0 0 0 0 0 0 0 0 0 1 135 492 244 143 114 140 360 432 450 429 422 438 430 415 367 363 399 400 380 287 287 298 294 227 104 0 0 0 104 366 518 570 477 409 414 415 350 0 0 0 0 0 0 0 0 0 0 0 0 0 0 0 0 0 0 0 0 0 0 0 4 0 0 0 24 0 0 18 39
0 0 0 0 0 0 0 0 0 0 0 0 0 0 0 0 122 381 61 0 36 94 99 105 226 254 303 368 397 390 421 406 381 412 401 357 299 267 286 270 226 28 0 0 0 71 163 342 461 363 296 333 237 0 0 0 0 0 0 0 0 0 0 0 0 0 0 0 0 0 0 0 0 0 0 0 0 0 0 0 0 0 0 0 0
1 0 0 0 0 1 0 0 0 0 0 0 0 0 2 59 230 242 100 55 5 6 4 18 39 72 189 233 246 272 318 366 395 370 368 352 326 314 268 282 265 151 51 0 0 0 0 48 250 374 231 0 0 0 0 0 0 0 0 0 0 0 0 0 0 0 0 0 0 0 0 0 0 0 0 0 0 0 0 0 0 0 0 0 0
1 0 0 0 0 0 0 0 0 0 0 0 0 0 27 52 86 54 1 12 0 0 0 0 1 18 48 84 109 166 238 302 364 384 357 339 326 312 305 328 319 283 174 27 0 0 0 0 45 222 233 0 0 0 0 0 0 0 0 0 0 0 0 0 0 0 0 0 0 0 0 0 0 0 0 0 0 0 0 0 0 0 0 0 0
0 0 0 0 0 0 0 0 0 0 0 0 0 4 28 18 18 16 12 9 0 0 0 0 0 0 2 26 84 123 164 232 258 292 304 304 292 280 271 255 295 313 218 128 23 0 0 0 0 0 31 0 0 0 0 0 0 0 0 0 0 0 0 0 0 0 0 0 0 0 0 0 0 0 0 0 0 0 0 0 1 0 0 0 1
0 0 0 0 0 0 0 0 0 0 0 0 1 27 15 16 16 16 22 22 10 0 0 0 0 0 0 7 47 90 143 230 287 305 324 330 312 290 263 221 182 318 211 50 67 0 0 0 0 0 0 0 0 0 0 0 0 0 0 0 0 0 0 0 0 0 0 0 0 0 0 0 0 0 0 0 0 0 1 1 0 0 1 1 0
0 0 0 0 0 0 0 0 0 0 0 0 29 40 23 19 23 26 27 24 21 1 0 0 0 0 0 0 23 86 132 214 265 340 378 406 402 378 281 228 183 193 175 0 16 0 0 0 0 0 0 0 0 0 0 0 0 0 0 0 0 0 0 0 0 0 0 0 0 0 0 0 0 0 0 0 0 0 0 0 1 0 0 0 0
0 0 0 0 0 0 0 0 0 0 0 0 22 40 27 24 31 33 31 28 22 8 0 0 0 0 0 0 11 44 106 154 119 137 218 257 333 359 277 169 166 220 245 183 47 0 0 0 0 0 0 0 0 0 0 0 0 0 0 0 0 0 0 0 0 0 0 0 0 0 0 0 0 0 0 0 0 1 0 0 0 0 0 1 0
0 0 0 0 0 0 0 0 0 0 0 0 0 46 41 35 42 39 36 31 21 2 1 0 0 0 0 0 1 36 74 107 80 102 128 177 249 261 281 217 165 174 229 170 5 88 0 88 0 0 0 0 0 0 0 0 0 0 0 0 0 0 0 0 0 0 0 0 0 0 0 0 0 0 0 0 1 1 1 0 0 0 0 0 1
0 0 0 0 0 0 0 0 0 0 0 0 0 26 54 45 47 50 46 39 26 2 1 0 4 0 0 0 0 7 28 68 140 201 193 166 151 230 265 214 186 169 221 187 155 1 0 0 0 0 0 0 0 0 0 0 0 0 0 0 0 0 0 0 0 0 0 0 0 0 0 0 0 0 0 1 1 1 1 1 1 0 0 0 2
0 0 0 0 0 0 0 0 0 0 0 0 0 2 34 54 51 56 56 45 1 0 0 0 0 0 0 0 0 1 7 33 95 143 135 83 103 141 155 166 139 119 143 176 178 19 2 54 0 0 0 0 0 0 0 0 0 0 0 0 0 0 0 0 0 0 0 0 0 0 0 0 0 0 1 1 1 0 0 0 0 1 2 1 0
0 0 0 0 0 0 0 0 0 0 0 0 0 0 2 57 83 73 69 49 0 0 0 0 0 0 0 0 0 0 1 12 41 86 106 93 115 144 205 206 164 134 86 116 186 165 57 81 0 0 0 0 0 0 0 0 0 0 0 0 0 0 0 0 0 0 0 0 0 0 0 0 1 1 1 0 0 0 1 1 0 1 1 1 2
0 0 0 0 0 0 0 0 0 0 0 0 0 0 26 81 91 94 94 74 56 10 0 0 0 0 0 0 0 0 0 0 54 166 236 305 297 209 221 198 150 118 118 129 117 174 78 24 27 0 0 0 0 0 0 0 0 0 0 0 0 0 0 0 0 0 0 0 0 0 1 1 1 1 1 1 0 0 0 0 0 1 1 1 1
0 0 0 0 0 0 0 0 0 0 0 0 0 23 0 0 0 87 106 100 34 0 0 0 0 0 0 0 0 0 40 277 368 266 138 144 101 102 196 199 153 107 75 88 104 138 139 29 24 27 9 0 0 0 0 0 0 0 0 0 0 0 0 0 0 0 0 0 0 1 0 1 1 1 1 1 1 1 0 0 0 0 1 0 1
0 0 0 0 0 0 0 0 0 0 0 0 96 0 0 0 22 88 0 0 0 0 0 0 0 0 0 0 0 93 185 232 289 103 0 0 8 7 14 102 141 115 82 48 60 81 83 38 16 14 5 0 0 0 0 0 0 0 0 0 0 0 0 0 0 0 0 0 0 0 0 1 0 0 1 1 1 2 1 0 0 0 0 0 0
0 0 0 0 0 0 0 0 0 0 0 11 34 57 0 0 0 0 0 0 0 0 0 0 0 0 0 0 0 15 54 50 25 12 0 0 16 5 1 0 11 64 85 53 23 54 88 24 22 22 25 15 19 8 0 0 0 0 0 0 0 0 0 0 0 0 0 0 0 0 0 1 1 0 1 1 0 0 0 0 1 0 0 0 0
0 0 0 0 0 0 0 0 0 0 0 13 63 81 21 0 0 0 0 0 0 0 0 0 0 0 0 0 0 0 1 36 109 96 0 5 19 9 4 1 0 0 4 8 7 18 29 11 16 15 10 22 28 30 20 7 0 0 0 0 0 0 0 0 0 0 0 0 0 0 0 1 0 1 1 2 0 0 0 1 2 1 1 0 0
0 0 0 0 0 0 0 0 0 0 0 0 56 48 4 0 0 0 0 0 0 0 0 0 0 0 0 1 2 0 0 45 76 10 27 30 32 10 7 5 3 0 4 11 15 5 8 2 5 22 28 30 22 1 0 0 0 0 0 0 0 0 0 0 0 0 0 0 0 0 0 0 0 0 0 0 0 0 0 2 2 2 2 0 0
0 0 0 0 0 0 0 0 0 0 0 0 0 0 0 0 0 0 0 0 0 0 0 0 0 0 0 0 0 1 0 1 0 41 44 60 16 6 4 4 5 2 0 3 15 13 43 17 14 26 27 17 18 17 16 5 1 0 0 0 0 0 0 0 0 0 0 0 0 0 0 0 0 1 0 0 0 0 0 1 1 2 2 1 0
0 0 0 0 0 0 0 0 0 0 0 0 0 0 0 0 0 0 0 0 0 0 0 0 0 0 0 0 0 0 6 10 15 27 31 26 13 12 8 7 5 3 1 5 10 22 52 7 10 14 30 18 10 6 10 8 5 5 2 0 0 0 0 0 0 0 0 0 0 0 0 1 1 0 0 0 0 0 0 1 2 2 2 1 0
0 0 0 0 0 0 0 0 0 0 0 0 0 0 0 0 0 0 0 0 0 0 0 0 0 0 0 0 0 5 21 17 6 2 12 13 11 14 13 3 2 2 3 2 11 6 6 2 10 22 18 14 6 7 11 10 10 13 9 0 4 4 0 0 0 0 0 0 0 0 0 0 0 0 0 0 0 0 0 1 2 2 2 1 2
0 0 0 0 0 0 0 0 0 0 0 0 0 0 0 0 0 0 0 0 0 0 0 0 0 0 0 0 5 12 19 16 3 3 4 22 17 14 8 3 1 1 0 0 1 3 6 10 2 4 1 0 1 2 6 12 18 25 27 19 15 9 0 2 0 0 0 0 0 0 0 0 0 0 0 0 0 0 4 4 2 2 1 2 2
0 0 0 0 0 0 0 0 0 0 0 0 0 0 0 0 0 0 0 0 0 0 0 0 0 0 0 0 6 12 20 20 4 2 2 9 16 10 6 4 4 3 1 0 0 0 0 13 18 14 11 6 0 6 24 25 28 32 20 9 6 4 0 0 2 0 0 0 0 0 0 0 0 0 0 0 0 2 4 4 3 2 1 3 2
0 0 0 0 0 0 0 0 0 0 0 0 0 0 0 0 0 0 0 0 0 0 0 0 0 0 0 0 2 11 20 14 6 9 8 4 7 2 1 0 1 4 0 0 2 1 0 2 14 16 14 16 9 7 18 25 30 29 20 18 15 7 1 0 0 0 0 0 0 0 0 0 0 0 0 0 1 2 4 4 3 1 1 4 1
Wind_Speed
5 5 6 7 7 8 8 7 8 7 7 7 6 6 6 5 5 5 5 6 5 5 6 6 6 7 8 8 9 11 11 nan 14 16 16 14 12 11 13 14 14 13 13 14 17 17 17 17 17 16 15 13 11 11 11 10 11 11 14 14 14 14 nan nan nan nan nan nan nan nan nan nan nan nan nan nan nan nan nan nan nan nan nan nan nan
8 8 10 9 10 10 10 10 9 8 10 9 8 8 7 7 7 7 6 6 7 6 7 6 6 7 8 9 9 11 10 nan 13 14 15 14 13 13 12 12 13 12 12 12 14 15 15 15 16 15 15 14 13 10 10 9 9 10 15 15 14 14 15 15 nan nan nan nan nan nan nan nan nan nan nan nan nan nan nan nan nan nan nan nan nan
10 10 10 9 9 9 9 10 9 9 11 11 11 10 9 8 8 8 7 8 8 8 8 8 8 7 10 10 10 13 12 10 12 14 14 14 14 14 11 12 12 12 11 11 12 13 13 12 14 14 14 15 15 13 10 8 10 9 17 15 14 14 14 15 14 nan nan nan nan nan nan nan nan nan nan nan nan nan nan nan nan nan nan nan nan
11 10 10 10 9 9 9 10 9 9 11 11 11 11 11 9 9 10 10 11 10 9 9 9 7 11 7 8 13 18 14 11 11 13 14 13 13 13 13 12 11 11 10 10 10 10 12 12 11 13 13 14 15 14 11 10 10 10 18 16 15 14 14 15 15 14 nan nan nan nan nan nan nan nan nan nan nan nan nan nan nan nan nan nan nan
11 12 11 11 10 10 10 10 10 11 12 12 11 11 11 10 10 12 12 13 13 11 11 11 9 9 10 9 18 18 10 11 10 9 11 13 14 13 13 13 12 11 11 10 9 9 9 11 11 12 13 13 13 13 13 11 11 11 18 17 16 15 15 15 15 14 14 nan nan nan nan nan nan nan nan nan nan 14 13 13 13 13 nan nan nan
16 14 14 13 12 12 12 11 11 12 13 15 13 13 12 12 11 14 13 14 13 11 12 12 11 10 10 11 15 16 12 11 11 10 12 14 14 14 13 13 13 13 12 9 8 8 8 9 11 12 13 13 13 13 12 12 11 11 14 18 17 15 15 15 15 15 14 14 13 12 nan nan nan nan nan nan nan 14 15 15 14 13 13 nan nan
17 20 18 18 16 14 14 13 14 14 15 14 14 14 15 14 15 14 13 13 13 12 14 12 13 12 11 13 12 18 14 12 10 9 11 13 14 13 14 14 14 14 13 12 8 7 8 10 10 12 12 12 13 13 11 11 12 12 12 16 17 16 15 15 15 15 15 14 13 12 11 11 10 nan 10 nan nan nan 12 14 14 14 13 nan nan
15 15 19 19 20 19 17 17 17 17 16 16 16 14 14 17 16 17 16 14 14 14 16 15 15 14 13 15 14 16 17 13 10 9 11 14 13 14 15 15 14 14 14 15 14 13 11 12 12 12 12 11 12 13 12 10 11 11 12 12 15 17 16 16 16 17 16 15 14 14 13 12 11 11 11 10 nan nan 11 12 12 13 13 12 10
11 16 17 18 21 20 22 21 23 22 20 19 18 17 17 18 17 17 19 16 15 16 16 17 16 16 16 16 16 16 15 16 10 8 11 13 14 14 16 15 14 13 14 15 15 16 14 14 14 14 13 11 11 11 11 11 11 12 13 13 12 14 16 18 19 19 17 16 15 15 15 13 13 12 12 11 10 10 11 11 12 12 12 nan 11
19 18 18 17 20 20 21 24 25 25 25 24 21 21 20 20 19 18 19 20 18 17 16 17 18 18 18 17 16 17 15 15 13 12 14 13 13 14 14 13 15 14 14 14 14 15 16 14 15 15 14 12 11 11 11 11 11 11 12 13 13 14 15 16 19 18 17 16 16 16 17 15 14 14 13 12 11 11 11 12 12 12 11 11 11
21 21 20 20 21 21 21 21 24 26 27 27 26 26 26 25 24 23 22 22 21 20 18 17 18 18 18 18 19 17 16 17 16 15 15 14 14 14 16 13 13 14 14 15 18 18 15 17 19 19 17 12 11 11 12 12 12 10 10 11 14 16 18 17 18 18 17 17 16 16 17 16 15 14 14 13 12 12 12 12 12 12 12 11 10
21 21 22 22 23 24 23 24 24 25 26 27 26 27 27 27 27 27 26 25 24 22 22 21 21 20 19 20 nan 18 17 17 17 15 15 15 14 15 15 15 16 17 17 20 21 20 19 21 23 20 16 15 12 14 13 12 12 12 9 11 18 17 19 22 22 20 20 17 17 17 16 16 15 13 13 12 12 12 12 13 13 12 12 11 10
20 21 22 22 23 24 25 25 26 27 26 25 27 27 27 28 28 30 29 29 28 26 25 26 26 23 nan nan nan nan 19 19 17 16 15 16 16 16 17 23 18 13 18 21 19 18 21 29 27 15 15 17 17 13 12 11 11 12 10 12 14 14 15 20 21 22 21 19 17 16 16 16 14 14 13 12 12 12 12 13 14 13 12 13 13
19 21 22 23 23 24 25 26 26 27 27 27 28 28 30 30 31 31 32 32 30 29 26 29 29 27 26 nan nan nan nan 22 21 21 18 17 19 18 21 18 14 18 19 16 15 19 22 20 16 15 16 17 18 19 17 15 14 12 10 10 14 12 10 12 14 15 17 18 19 17 17 16 15 15 15 13 13 13 11 11 12 11 11 10 12
16 18 20 22 23 24 24 nan 26 27 30 30 30 29 29 29 30 31 30 33 32 30 29 31 29 29 29 nan nan nan nan nan 27 24 19 18 21 24 22 17 15 17 18 17 15 18 20 17 12 13 15 15 16 17 17 17 16 13 10 9 12 14 10 9 9 12 15 15 17 17 16 16 16 16 15 15 15 15 14 12 11 10 10 10 11
14 15 16 19 21 23 23 25 25 27 29 31 32 32 31 29 29 30 32 31 34 32 33 32 32 30 30 29 nan nan nan nan nan nan nan 24 23 26 21 19 18 17 19 16 16 17 18 18 14 14 15 15 16 15 15 17 13 12 9 5 7 11 10 8 8 9 11 12 14 15 14 15 15 16 17 17 16 16 15 15 13 11 11 11 13
15 15 16 16 18 20 22 24 25 27 28 31 nan 31 32 32 32 32 32 32 31 33 33 34 33 32 31 31 nan nan nan nan nan nan nan 30 27 27 22 22 21 18 18 16 17 17 17 17 15 15 15 15 15 15 15 15 15 15 15 9 11 11 8 6 6 7 7 11 11 14 13 12 13 14 15 18 17 16 16 16 15 13 12 11 13
15 16 16 17 16 17 19 21 23 25 28 29 30 32 33 34 34 34 32 32 32 32 34 35 35 32 31 nan nan nan nan 28 nan nan nan nan nan 28 24 23 22 21 19 18 17 16 17 16 16 15 16 17 16 16 16 16 15 17 17 15 12 13 8 9 7 5 6 8 12 12 12 12 12 12 14 16 17 16 18 16 15 14 13 14 14
16 17 17 18 18 18 18 19 20 22 25 29 30 32 32 33 34 36 35 34 36 35 35 33 36 36 34 32 31 31 32 nan 28 nan nan nan nan 31 25 22 23 24 22 19 16 18 18 18 17 16 nan 17 17 17 18 17 16 17 17 15 18 14 12 13 10 8 7 7 11 8 9 7 7 9 13 15 17 21 21 17 15 15 16 16 15
18 17 18 18 19 19 19 19 19 19 22 25 27 29 31 33 35 35 36 37 37 35 32 32 33 33 36 35 34 33 32 nan nan nan nan nan nan nan nan 24 25 24 24 21 18 19 nan 19 19 20 19 17 17 17 17 17 18 18 18 16 16 14 11 12 12 12 11 14 10 9 7 3 3 7 11 15 17 18 19 17 15 15 16 15 17
nan nan nan nan 18 19 19 19 19 18 20 21 24 27 30 32 34 36 37 36 37 36 34 32 34 32 36 36 38 35 nan nan nan nan nan nan nan nan nan 28 27 25 24 23 21 nan 22 24 23 22 20 19 20 18 17 17 17 16 16 15 13 12 12 11 13 13 13 17 15 15 10 4 3 7 9 13 16 15 17 17 14 14 14 14 15
nan nan nan nan nan 19 19 19 19 18 19 19 21 23 27 30 32 35 37 37 37 38 37 36 38 40 nan 37 36 36 37 nan 37 36 34 nan nan nan nan nan 25 25 26 23 21 22 23 28 26 25 23 22 21 20 20 19 18 18 15 14 14 13 12 11 14 17 18 20 19 13 9 8 7 9 11 14 17 19 18 19 16 16 14 14 14
nan nan nan nan nan nan nan nan nan 19 18 18 18 20 22 26 28 32 35 37 38 38 38 38 41 42 36 36 33 31 30 31 nan nan 35 nan nan nan nan nan nan nan nan 24 24 24 25 28 27 26 25 24 23 22 21 21 20 21 24 23 21 17 13 17 19 20 21 18 13 14 12 13 11 12 13 16 15 18 19 19 19 20 18 16 14
nan nan nan nan nan nan nan nan nan nan nan nan nan 18 19 22 25 28 30 33 37 39 39 38 40 41 36 36 32 31 31 29 32 33 nan nan nan nan nan nan nan nan nan 28 26 27 26 26 26 26 28 26 25 22 21 22 21 23 23 24 25 25 23 20 18 18 16 18 15 17 23 23 25 26 23 22 23 26 28 30 32 30 24 21 21
nan nan nan nan nan nan nan nan nan nan nan nan nan nan nan 19 21 24 26 28 31 36 40 40 40 41 41 38 36 35 33 32 31 31 36 nan nan nan nan nan nan nan nan 30 26 27 27 27 27 26 30 29 27 nan nan 22 22 22 23 21 nan 24 24 22 26 30 29 26 22 20 26 29 34 35 34 32 28 29 33 36 38 35 37 43 44
nan nan nan nan nan nan nan nan nan nan nan nan nan nan nan 18 20 20 22 24 27 30 34 39 42 43 46 45 42 39 35 33 30 30 33 37 nan nan nan nan nan nan nan 28 28 29 27 27 28 28 31 32 nan nan nan nan 23 23 25 nan nan 26 26 27 nan nan nan 30 31 36 35 35 38 40 40 39 37 35 35 36 36 36 37 39 39
nan nan nan nan nan nan nan nan nan nan nan nan nan nan nan nan 19 20 20 23 23 25 28 34 39 43 48 49 47 45 41 39 38 39 39 38 37 36 39 37 nan nan nan 29 27 24 25 30 30 29 31 33 31 nan nan nan nan nan nan nan nan nan nan nan nan nan nan nan nan nan nan nan nan nan nan nan nan nan nan nan nan nan nan nan nan
nan nan nan nan nan nan nan nan nan nan nan nan nan nan nan nan 18 21 21 23 22 22 24 28 32 39 45 49 50 47 46 44 44 44 44 42 41 40 40 40 38 nan nan nan 28 23 25 29 29 29 32 33 33 nan nan nan nan nan nan nan nan nan nan nan nan nan nan nan nan nan nan nan nan nan nan nan nan nan nan nan nan nan nan nan nan
nan nan nan nan nan nan nan nan nan nan nan nan nan nan nan nan 20 22 nan nan nan nan nan 24 27 32 39 45 50 50 49 46 45 45 46 47 45 43 42 40 41 nan nan nan nan nan 26 26 27 26 31 34 35 nan nan nan nan nan nan nan nan nan nan nan nan nan nan nan nan nan nan nan nan nan nan nan nan nan nan nan nan nan nan nan nan
nan nan nan nan nan nan nan nan nan nan nan nan nan nan nan nan 24 24 24 nan nan nan nan nan nan nan 31 37 45 49 50 48 47 45 45 46 46 44 42 41 42 39 nan nan nan nan nan nan 25 28 30 nan nan nan nan nan nan nan nan nan nan nan nan nan nan nan nan nan nan nan nan nan nan nan nan nan nan nan nan nan nan nan nan nan nan
nan nan nan nan nan nan nan nan nan nan nan nan nan nan nan nan nan nan nan nan nan nan nan nan nan nan nan nan 37 44 48 49 49 49 47 45 45 45 43 42 42 40 39 nan nan nan nan nan nan 28 29 nan nan nan nan nan nan nan nan nan nan nan nan nan nan nan nan nan nan nan nan nan nan nan nan nan nan nan nan nan nan nan nan nan nan
nan nan nan nan nan nan nan nan nan nan nan nan nan nan nan nan nan nan nan nan nan nan nan nan nan nan nan nan nan 37 44 48 49 51 51 49 47 46 45 44 44 44 42 43 nan nan nan nan nan nan nan nan nan nan nan nan nan nan nan nan nan nan nan nan nan nan nan nan nan nan nan nan nan nan nan nan nan nan nan nan nan nan nan nan nan
nan nan nan nan nan nan nan nan nan nan nan nan nan nan nan nan nan nan nan nan nan nan nan nan nan nan nan nan nan nan 38 43 47 49 52 52 51 50 49 47 47 43 39 nan nan nan nan nan nan nan nan nan nan nan nan nan nan nan nan nan nan nan nan nan nan nan nan nan nan nan nan nan nan nan nan nan nan nan nan nan nan nan nan nan nan
nan nan nan nan nan nan nan nan nan nan nan nan nan nan nan nan nan nan nan nan nan nan nan nan nan nan nan nan nan nan 34 37 43 46 49 52 53 53 51 46 44 42 41 nan nan nan nan nan nan nan nan nan nan nan nan nan nan nan nan nan nan nan nan nan nan nan nan nan nan nan nan nan nan nan nan nan nan nan nan nan nan nan nan nan nan
nan nan nan nan nan nan nan nan nan nan nan nan nan nan nan nan nan nan nan nan nan nan nan nan nan nan nan nan nan nan 32 33 37 43 47 48 51 51 50 47 44 44 44 43 nan nan nan nan nan nan nan nan nan nan nan nan nan nan nan nan nan nan nan nan nan nan nan nan nan nan nan nan nan nan nan nan nan nan nan nan nan nan nan nan nan
nan nan nan nan nan nan nan nan nan nan nan nan nan nan nan nan nan nan nan nan nan nan nan nan nan nan nan nan nan nan nan 31 nan 38 43 46 48 49 49 48 46 43 43 46 nan nan nan nan nan nan nan nan nan nan nan nan nan nan nan nan nan nan nan nan nan nan nan nan nan nan nan nan nan nan nan nan nan nan nan nan nan nan nan nan nan
nan nan nan nan nan nan nan nan nan nan nan nan nan nan nan nan nan nan nan nan nan nan nan nan nan nan nan nan nan nan nan nan 32 34 40 43 45 46 47 47 46 47 45 46 45 nan nan nan nan nan nan nan nan nan nan nan nan nan nan nan nan nan nan nan nan nan nan nan nan nan nan nan nan nan nan nan nan nan nan nan nan nan nan nan nan
nan nan nan nan nan nan nan nan nan nan nan nan nan nan nan nan nan nan nan nan nan nan nan nan nan nan nan nan nan nan nan nan nan 33 36 nan 42 43 44 44 45 47 47 46 45 nan nan nan nan nan nan nan nan nan nan nan nan nan nan nan nan nan nan nan nan nan nan nan nan nan nan nan nan nan nan nan nan nan nan nan nan nan nan nan nan
nan nan nan nan nan nan nan nan nan nan nan nan nan nan nan nan nan nan nan nan nan nan nan nan nan nan nan nan nan nan nan nan nan nan 32 nan 40 41 42 43 44 47 nan 47 47 46 nan nan nan nan nan nan nan nan nan nan nan nan nan nan nan nan nan nan nan nan nan nan nan nan nan nan nan nan nan nan nan nan nan nan nan nan nan nan nan
nan nan nan nan nan nan nan nan nan nan nan nan nan nan nan nan nan nan nan nan nan nan nan nan nan nan nan nan nan nan nan nan nan 31 31 33 38 40 43 44 45 46 45 46 46 46 nan nan nan nan nan nan nan nan nan nan nan nan nan nan nan nan nan nan nan nan nan nan nan nan nan nan nan nan nan nan nan nan nan nan nan nan nan nan nan
nan nan nan nan nan nan nan nan nan nan nan nan nan nan nan nan nan nan 47 nan nan nan nan nan nan nan nan nan nan nan nan 31 30 31 32 33 37 41 42 44 46 46 nan nan 42 42 47 nan nan nan nan nan nan nan nan nan nan nan nan nan nan nan nan nan nan nan nan nan nan nan nan nan nan nan nan nan nan nan nan nan nan nan nan nan nan
nan nan nan nan nan nan nan nan nan nan nan nan nan nan nan nan nan nan nan nan nan nan nan nan nan nan nan nan nan nan 31 32 32 32 nan nan nan nan nan 43 45 47 nan nan nan nan nan nan nan nan nan nan nan nan nan nan nan nan nan nan nan nan nan nan nan nan nan nan nan nan nan nan nan nan nan nan nan nan nan nan nan nan nan nan nan
nan nan nan nan nan nan nan nan nan nan nan nan nan nan nan nan nan nan nan nan nan nan nan nan nan nan nan nan nan nan nan nan nan nan nan nan nan nan nan nan nan nan nan nan nan nan nan nan nan nan nan nan nan nan nan nan nan nan nan nan nan nan nan nan nan nan nan nan nan nan nan nan nan nan nan nan nan nan nan nan nan nan nan nan nan
nan nan nan nan nan nan nan nan nan nan nan nan nan nan nan nan nan nan nan nan nan nan nan nan nan nan nan nan nan nan nan nan 36 nan nan nan nan nan nan nan nan nan nan nan nan nan nan nan nan nan nan nan nan nan nan nan nan nan nan nan nan nan nan nan nan nan nan nan nan nan nan nan nan nan nan nan nan nan nan nan nan nan nan nan nan
nan nan nan nan nan nan nan nan nan nan nan nan nan nan nan nan nan nan nan nan nan nan nan nan nan nan nan nan nan nan nan nan nan nan nan nan nan nan nan nan nan nan nan nan nan nan nan nan nan nan nan nan nan nan nan nan nan nan nan nan nan nan nan nan nan nan nan nan nan nan nan nan nan nan nan nan nan nan nan nan nan nan nan nan nan
nan nan nan nan nan nan nan nan nan nan nan nan nan nan nan nan nan nan nan nan nan nan nan nan nan nan nan nan nan nan nan nan nan nan nan nan nan nan nan nan nan nan nan nan nan nan nan nan nan nan nan nan nan nan nan nan nan nan nan nan nan nan nan nan nan nan nan nan nan nan nan nan nan nan nan nan nan nan nan nan nan nan nan nan nan
nan nan nan nan nan nan nan nan nan nan nan nan nan nan nan nan nan nan nan nan nan nan nan nan nan nan nan nan nan nan nan nan nan nan nan nan nan nan nan nan nan nan nan nan nan nan nan nan nan nan nan nan nan nan nan nan nan nan nan nan nan nan nan nan nan nan nan nan nan nan nan nan nan nan nan nan nan nan nan nan nan nan nan nan nan
nan nan nan nan nan nan nan nan nan nan nan nan nan nan nan nan nan nan nan nan nan nan nan nan nan nan nan nan nan nan nan nan nan nan nan nan nan nan nan nan nan nan nan nan nan nan nan nan nan nan nan nan nan nan nan nan nan nan nan nan nan nan nan nan nan nan nan nan nan nan nan nan nan nan nan nan nan nan nan nan nan nan nan nan nan
nan nan nan nan nan nan nan nan nan nan nan nan nan nan nan nan nan nan nan nan nan nan nan nan nan nan nan nan nan nan nan nan nan nan nan nan nan nan nan nan nan nan nan nan nan nan nan nan nan nan nan nan nan nan nan nan nan nan nan nan nan nan nan nan nan nan nan nan nan nan nan nan nan nan nan nan nan nan nan nan nan nan nan nan nan
nan nan nan nan nan nan nan nan nan nan nan nan nan nan nan nan nan nan nan nan nan nan nan nan nan nan nan nan nan nan nan nan nan nan nan nan nan nan nan nan nan nan nan nan nan nan nan nan nan nan nan nan nan nan nan nan nan nan nan nan nan nan nan nan nan nan nan nan nan nan nan nan nan nan nan nan nan nan nan nan nan nan nan nan nan
nan nan nan nan nan nan nan nan nan nan nan nan nan nan nan nan nan nan nan nan nan nan nan nan nan nan nan nan nan nan nan nan nan nan nan nan nan nan nan nan nan nan nan nan nan nan nan nan nan nan nan nan nan nan nan nan nan nan nan nan nan nan nan nan nan nan nan nan nan nan nan nan nan nan nan nan nan nan nan nan nan nan nan nan nan
Wind_Direction
251 231 228 212 214 212 212 208 214 211 217 214 225 223 230 232 228 231 242 235 240 238 241 247 258 266 273 256 255 249 239 nan 258 260 261 266 264 271 302 301 293 290 288 296 296 296 297 299 299 298 296 295 295 298 297 297 305 306 307 301 302 305 nan nan nan nan nan nan nan nan nan nan nan nan nan nan nan nan nan nan nan nan nan nan nan
257 251 245 226 228 229 223 223 224 226 232 224 226 235 233 238 237 239 240 245 251 253 255 254 261 277 276 275 274 270 259 nan 254 268 270 266 261 258 294 295 295 290 286 291 300 298 297 297 298 297 296 296 292 291 291 290 289 298 297 298 298 300 306 310 nan nan nan nan nan nan nan nan nan nan nan nan nan nan nan nan nan nan nan nan nan
247 248 245 243 241 249 247 243 236 230 241 240 234 236 240 246 248 246 245 249 253 254 251 253 248 238 269 286 285 278 261 242 253 258 263 273 267 260 265 299 295 291 286 285 293 295 298 294 298 296 297 299 297 291 289 289 284 278 286 291 293 294 301 308 313 nan nan nan nan nan nan nan nan nan nan nan nan nan nan nan nan nan nan nan nan
257 251 252 247 241 247 248 255 257 250 251 253 249 248 242 240 245 248 253 257 251 247 255 259 260 268 261 279 276 254 250 246 235 250 261 269 273 270 265 268 294 293 288 285 277 284 290 292 291 291 293 293 295 294 298 296 287 279 281 286 285 291 295 301 306 310 nan nan nan nan nan nan nan nan nan nan nan nan nan nan nan nan nan nan nan
267 264 258 261 260 261 256 254 260 265 262 265 260 255 257 249 245 253 254 256 255 250 255 262 260 261 270 273 271 272 272 272 269 258 268 276 279 278 269 262 265 290 297 291 280 269 268 288 283 285 288 284 286 290 293 294 292 283 282 289 287 288 293 296 299 304 311 nan nan nan nan nan nan nan nan nan nan 294 297 295 293 292 nan nan nan
275 268 268 265 258 255 257 257 261 268 270 270 275 273 271 266 263 258 249 251 249 249 249 249 255 256 260 259 262 284 282 273 274 270 266 271 272 273 273 263 260 263 270 296 292 269 269 270 276 280 281 284 285 284 286 288 288 287 287 290 291 292 293 293 295 300 304 308 313 318 nan nan nan nan nan nan nan 290 291 293 290 289 293 nan nan
282 281 275 278 278 270 266 265 259 259 264 266 271 270 274 276 278 266 262 260 265 262 264 259 253 249 259 265 262 269 265 255 249 260 266 267 268 265 265 264 260 259 266 267 274 285 279 283 283 279 279 281 287 286 285 287 285 286 286 291 292 293 293 292 293 293 296 297 302 307 311 315 319 nan 309 nan nan nan 286 290 293 293 293 nan nan
285 280 276 277 279 283 284 278 272 265 265 267 263 261 265 265 267 268 265 261 264 261 262 257 254 253 254 262 261 262 272 262 251 248 259 267 269 265 263 264 261 259 261 260 255 262 294 294 290 288 285 283 284 287 284 285 286 283 283 282 292 295 294 292 289 285 286 290 296 300 303 305 309 310 309 311 nan nan 290 290 293 296 297 296 298
276 285 280 268 268 271 276 277 280 280 277 276 272 266 266 270 267 266 270 267 260 254 251 256 253 251 249 252 259 264 268 279 276 260 258 263 263 260 260 263 261 264 263 262 261 263 286 307 297 290 283 281 278 279 281 280 282 285 277 276 276 287 291 291 286 284 285 290 292 294 296 298 299 302 308 312 312 308 300 294 292 294 299 nan 303
269 267 264 268 269 274 273 271 273 275 275 270 268 265 267 267 266 265 272 269 264 258 251 248 249 246 243 243 246 254 259 262 267 263 264 266 263 263 268 267 264 263 262 259 261 267 270 292 307 295 283 275 276 277 274 273 271 273 276 278 279 280 289 288 284 285 285 287 286 286 288 293 297 300 305 309 311 312 305 295 289 290 297 304 308
273 270 269 264 262 262 267 267 270 271 268 268 268 268 268 268 266 261 261 266 267 266 266 261 256 254 251 246 243 244 247 253 259 260 262 265 267 269 266 262 253 259 262 256 244 239 251 266 275 274 271 287 277 273 269 269 266 267 277 280 270 264 261 276 281 281 282 282 280 279 282 287 294 297 301 303 305 305 305 301 293 291 295 302 306
274 275 271 266 263 262 257 253 255 262 266 264 263 264 264 265 264 265 258 255 259 261 260 260 258 260 260 255 nan 251 250 254 257 260 263 261 260 260 265 262 249 246 250 253 255 253 252 248 246 251 269 271 273 265 265 266 267 268 270 272 266 268 269 268 274 277 275 277 279 276 276 281 287 291 292 297 302 305 309 312 308 299 297 302 306
274 273 270 267 266 263 259 256 255 255 255 259 261 259 262 264 262 263 263 260 258 255 254 259 257 251 nan nan nan nan 255 258 262 261 260 260 259 258 256 251 254 259 247 247 257 254 250 255 260 270 267 267 261 266 271 271 271 272 285 297 295 292 287 281 278 276 275 278 282 279 277 279 283 286 288 290 295 299 305 313 318 318 307 304 306
280 276 274 271 264 260 259 257 257 255 255 253 252 253 252 252 254 254 260 261 260 258 252 255 251 257 251 nan nan nan nan 254 255 252 252 256 262 263 254 265 266 255 257 264 262 260 260 262 269 269 270 264 259 253 252 254 258 275 291 303 295 298 287 283 283 283 278 276 273 275 272 277 280 282 285 288 289 292 297 301 312 320 315 307 298
293 286 281 276 272 268 262 nan 257 256 253 250 249 246 249 251 253 256 250 256 259 257 255 257 255 255 255 nan nan nan nan nan 253 254 254 257 261 258 261 260 258 258 261 259 254 261 269 273 273 267 266 266 261 257 254 255 259 272 295 308 291 291 295 289 284 287 289 282 273 268 268 272 275 278 281 283 286 288 290 295 300 305 307 302 290
316 308 299 288 282 277 272 265 260 260 258 256 254 251 248 246 247 250 256 252 255 256 258 258 257 254 247 253 nan nan nan nan nan nan nan 256 257 260 264 257 251 251 253 260 261 262 268 273 272 266 266 267 266 265 261 257 257 255 271 314 284 281 290 310 314 307 300 292 284 272 265 267 270 275 276 277 278 278 287 295 298 298 302 303 287
324 321 315 307 299 290 282 276 269 262 260 257 nan 256 255 254 253 250 249 254 248 255 254 257 254 255 255 251 nan nan nan nan nan nan nan 252 259 266 264 262 258 258 258 255 257 260 265 270 270 265 265 266 266 266 263 260 259 254 247 241 250 261 284 308 317 325 314 299 291 277 271 261 260 264 272 274 277 282 284 286 290 292 293 292 287
325 321 320 319 313 307 299 288 279 272 267 264 261 256 251 251 253 255 250 250 253 250 252 251 254 254 257 nan nan nan nan 251 nan nan nan nan nan 263 266 266 265 266 261 259 261 264 263 265 265 266 263 261 262 263 262 260 258 259 256 246 255 275 299 291 297 313 308 301 292 270 263 259 257 259 266 272 272 273 273 273 276 277 281 282 282
321 319 319 319 319 317 311 304 297 287 279 271 265 261 258 255 251 250 251 251 251 250 248 249 244 250 254 254 252 254 256 nan 252 nan nan nan nan 259 258 264 266 266 266 263 263 261 257 259 263 265 nan 261 261 263 264 260 262 262 273 272 276 288 280 276 279 266 265 286 278 282 263 241 263 261 259 267 269 266 266 268 270 273 276 280 281
311 310 311 311 313 313 314 312 308 302 295 282 275 270 264 260 256 254 253 253 254 253 250 249 250 249 252 252 251 250 252 nan nan nan nan nan nan nan nan 256 258 260 261 261 259 258 nan 259 259 258 259 260 258 259 261 262 260 260 263 278 286 292 282 273 268 260 257 266 280 287 302 332 334 275 254 253 252 257 264 263 267 273 279 280 280
nan nan nan nan 307 309 310 310 309 309 307 297 288 279 272 266 259 254 252 250 250 252 252 247 249 250 245 247 248 248 nan nan nan nan nan nan nan nan nan 249 252 252 256 257 254 nan 258 259 258 260 260 259 257 256 259 259 258 259 264 281 282 287 281 275 265 261 249 252 259 257 282 321 340 292 279 263 255 256 260 261 263 271 275 270 257
nan nan nan nan nan 306 306 307 309 309 307 304 300 290 282 275 269 263 258 253 251 249 248 245 247 248 nan 245 240 240 245 nan 250 252 249 nan nan nan nan nan 249 254 259 258 258 255 253 257 258 259 259 258 256 256 254 256 255 256 263 279 287 281 279 270 257 244 249 246 251 267 261 257 267 280 281 271 255 250 252 257 260 262 275 282 288
nan nan nan nan nan nan nan nan nan 307 306 305 303 299 294 287 280 272 263 257 253 250 249 250 252 247 242 247 246 248 244 245 nan nan 249 nan nan nan nan nan nan nan nan 262 259 257 254 255 259 260 261 259 257 257 256 255 257 259 263 263 262 267 268 256 249 245 247 255 249 255 261 259 253 257 266 265 254 244 247 256 253 246 243 255 268
nan nan nan nan nan nan nan nan nan nan nan nan nan 305 302 296 290 284 276 267 260 254 250 246 248 251 243 245 246 247 248 244 244 249 nan nan nan nan nan nan nan nan nan 255 253 255 257 258 258 259 260 260 259 257 255 255 257 268 263 265 265 264 263 258 250 245 254 258 246 259 263 266 260 255 259 267 263 255 252 251 249 245 244 252 246
nan nan nan nan nan nan nan nan nan nan nan nan nan nan nan 304 299 293 289 282 271 261 252 247 245 246 247 249 245 240 241 246 243 239 243 nan nan nan nan nan nan nan nan 252 253 253 257 257 257 256 260 260 260 nan nan 253 252 259 263 267 nan 272 273 275 267 257 254 264 263 270 274 272 269 264 258 262 262 256 255 253 253 249 242 241 243
nan nan nan nan nan nan nan nan nan nan nan nan nan nan nan 305 305 301 296 291 283 273 261 253 248 247 248 250 251 249 243 241 240 245 244 242 nan nan nan nan nan nan nan 245 248 252 248 256 257 255 256 258 nan nan nan nan 250 260 262 nan nan 274 277 277 nan nan nan 256 253 248 245 251 255 254 251 251 252 252 252 252 254 252 246 245 242
nan nan nan nan nan nan nan nan nan nan nan nan nan nan nan nan 306 307 301 292 287 281 272 261 252 247 247 249 250 249 247 245 242 240 245 246 244 242 247 243 nan nan nan 240 242 256 254 252 258 257 257 257 255 nan nan nan nan nan nan nan nan nan nan nan nan nan nan nan nan nan nan nan nan nan nan nan nan nan nan nan nan nan nan nan nan
nan nan nan nan nan nan nan nan nan nan nan nan nan nan nan nan 303 300 297 297 294 288 282 274 262 253 248 247 249 249 247 247 250 249 248 246 244 243 246 249 250 nan nan nan 238 238 248 252 251 256 257 258 256 nan nan nan nan nan nan nan nan nan nan nan nan nan nan nan nan nan nan nan nan nan nan nan nan nan nan nan nan nan nan nan nan
nan nan nan nan nan nan nan nan nan nan nan nan nan nan nan nan 297 297 nan nan nan nan nan 283 273 263 255 248 246 246 245 245 247 250 248 245 244 244 248 249 253 nan nan nan nan nan 238 253 255 256 261 259 259 nan nan nan nan nan nan nan nan nan nan nan nan nan nan nan nan nan nan nan nan nan nan nan nan nan nan nan nan nan nan nan nan
nan nan nan nan nan nan nan nan nan nan nan nan nan nan nan nan 295 299 303 nan nan nan nan nan nan nan 265 255 250 247 245 241 240 244 246 245 242 241 243 246 252 254 nan nan nan nan nan nan 246 252 258 nan nan nan nan nan nan nan nan nan nan nan nan nan nan nan nan nan nan nan nan nan nan nan nan nan nan nan nan nan nan nan nan nan nan
nan nan nan nan nan nan nan nan nan nan nan nan nan nan nan nan nan nan nan nan nan nan nan nan nan nan nan nan 255 250 248 243 239 239 241 242 241 239 240 244 249 254 254 nan nan nan nan nan nan 242 257 nan nan nan nan nan nan nan nan nan nan nan nan nan nan nan nan nan nan nan nan nan nan nan nan nan nan nan nan nan nan nan nan nan nan
nan nan nan nan nan nan nan nan nan nan nan nan nan nan nan nan nan nan nan nan nan nan nan nan nan nan nan nan nan 256 250 246 243 240 239 240 239 237 237 242 246 247 249 254 nan nan nan nan nan nan nan nan nan nan nan nan nan nan nan nan nan nan nan nan nan nan nan nan nan nan nan nan nan nan nan nan nan nan nan nan nan nan nan nan nan
nan nan nan nan nan nan nan nan nan nan nan nan nan nan nan nan nan nan nan nan nan nan nan nan nan nan nan nan nan nan 257 249 244 242 241 240 240 239 237 239 245 243 244 nan nan nan nan nan nan nan nan nan nan nan nan nan nan nan nan nan nan nan nan nan nan nan nan nan nan nan nan nan nan nan nan nan nan nan nan nan nan nan nan nan nan
nan nan nan nan nan nan nan nan nan nan nan nan nan nan nan nan nan nan nan nan nan nan nan nan nan nan nan nan nan nan 264 256 247 242 240 240 241 242 241 237 239 239 241 nan nan nan nan nan nan nan nan nan nan nan nan nan nan nan nan nan nan nan nan nan nan nan nan nan nan nan nan nan nan nan nan nan nan nan nan nan nan nan nan nan nan
nan nan nan nan nan nan nan nan nan nan nan nan nan nan nan nan nan nan nan nan nan nan nan nan nan nan nan nan nan nan 267 261 253 246 241 240 241 242 241 238 235 235 235 245 nan nan nan nan nan nan nan nan nan nan nan nan nan nan nan nan nan nan nan nan nan nan nan nan nan nan nan nan nan nan nan nan nan nan nan nan nan nan nan nan nan
nan nan nan nan nan nan nan nan nan nan nan nan nan nan nan nan nan nan nan nan nan nan nan nan nan nan nan nan nan nan nan 263 nan 249 243 240 239 241 242 240 239 235 233 237 nan nan nan nan nan nan nan nan nan nan nan nan nan nan nan nan nan nan nan nan nan nan nan nan nan nan nan nan nan nan nan nan nan nan nan nan nan nan nan nan nan
nan nan nan nan nan nan nan nan nan nan nan nan nan nan nan nan nan nan nan nan nan nan nan nan nan nan nan nan nan nan nan nan 259 253 245 239 237 238 239 239 237 239 234 232 236 nan nan nan nan nan nan nan nan nan nan nan nan nan nan nan nan nan nan nan nan nan nan nan nan nan nan nan nan nan nan nan nan nan nan nan nan nan nan nan nan
nan nan nan nan nan nan nan nan nan nan nan nan nan nan nan nan nan nan nan nan nan nan nan nan nan nan nan nan nan nan nan nan nan 252 246 nan 237 236 234 234 233 233 235 232 232 nan nan nan nan nan nan nan nan nan nan nan nan nan nan nan nan nan nan nan nan nan nan nan nan nan nan nan nan nan nan nan nan nan nan nan nan nan nan nan nan
nan nan nan nan nan nan nan nan nan nan nan nan nan nan nan nan nan nan nan nan nan nan nan nan nan nan nan nan nan nan nan nan nan nan 247 nan 238 236 233 230 228 229 nan 231 229 232 nan nan nan nan nan nan nan nan nan nan nan nan nan nan nan nan nan nan nan nan nan nan nan nan nan nan nan nan nan nan nan nan nan nan nan nan nan nan nan
nan nan nan nan nan nan nan nan nan nan nan nan nan nan nan nan nan nan nan nan nan nan nan nan nan nan nan nan nan nan nan nan nan 256 251 243 237 235 235 233 228 229 231 231 231 232 nan nan nan nan nan nan nan nan nan nan nan nan nan nan nan nan nan nan nan nan nan nan nan nan nan nan nan nan nan nan nan nan nan nan nan nan nan nan nan
nan nan nan nan nan nan nan nan nan nan nan nan nan nan nan nan nan nan 279 nan nan nan nan nan nan nan nan nan nan nan nan 247 237 237 237 235 234 231 233 235 231 231 nan nan 234 236 234 nan nan nan nan nan nan nan nan nan nan nan nan nan nan nan nan nan nan nan nan nan nan nan nan nan nan nan nan nan nan nan nan nan nan nan nan nan nan
nan nan nan nan nan nan nan nan nan nan nan nan nan nan nan nan nan nan nan nan nan nan nan nan nan nan nan nan nan nan 236 237 239 239 nan nan nan nan nan 233 233 231 nan nan nan nan nan nan nan nan nan nan nan nan nan nan nan nan nan nan nan nan nan nan nan nan nan nan nan nan nan nan nan nan nan nan nan nan nan nan nan nan nan nan nan
nan nan nan nan nan nan nan nan nan nan nan nan nan nan nan nan nan nan nan nan nan nan nan nan nan nan nan nan nan nan nan nan nan nan nan nan nan nan nan nan nan nan nan nan nan nan nan nan nan nan nan nan nan nan nan nan nan nan nan nan nan nan nan nan nan nan nan nan nan nan nan nan nan nan nan nan nan nan nan nan nan nan nan nan nan
nan nan nan nan nan nan nan nan nan nan nan nan nan nan nan nan nan nan nan nan nan nan nan nan nan nan nan nan nan nan nan nan 243 nan nan nan nan nan nan nan nan nan nan nan nan nan nan nan nan nan nan nan nan nan nan nan nan nan nan nan nan nan nan nan nan nan nan nan nan nan nan nan nan nan nan nan nan nan nan nan nan nan nan nan nan
nan nan nan nan nan nan nan nan nan nan nan nan nan nan nan nan nan nan nan nan nan nan nan nan nan nan nan nan nan nan nan nan nan nan nan nan nan nan nan nan nan nan nan nan nan nan nan nan nan nan nan nan nan nan nan nan nan nan nan nan nan nan nan nan nan nan nan nan nan nan nan nan nan nan nan nan nan nan nan nan nan nan nan nan nan
nan nan nan nan nan nan nan nan nan nan nan nan nan nan nan nan nan nan nan nan nan nan nan nan nan nan nan nan nan nan nan nan nan nan nan nan nan nan nan nan nan nan nan nan nan nan nan nan nan nan nan nan nan nan nan nan nan nan nan nan nan nan nan nan nan nan nan nan nan nan nan nan nan nan nan nan nan nan nan nan nan nan nan nan nan
nan nan nan nan nan nan nan nan nan nan nan nan nan nan nan nan nan nan nan nan nan nan nan nan nan nan nan nan nan nan nan nan nan nan nan nan nan nan nan nan nan nan nan nan nan nan nan nan nan nan nan nan nan nan nan nan nan nan nan nan nan nan nan nan nan nan nan nan nan nan nan nan nan nan nan nan nan nan nan nan nan nan nan nan nan
nan nan nan nan nan nan nan nan nan nan nan nan nan nan nan nan nan nan nan nan nan nan nan nan nan nan nan nan nan nan nan nan nan nan nan nan nan nan nan nan nan nan nan nan nan nan nan nan nan nan nan nan nan nan nan nan nan nan nan nan nan nan nan nan nan nan nan nan nan nan nan nan nan nan nan nan nan nan nan nan nan nan nan nan nan
nan nan nan nan nan nan nan nan nan nan nan nan nan nan nan nan nan nan nan nan nan nan nan nan nan nan nan nan nan nan nan nan nan nan nan nan nan nan nan nan nan nan nan nan nan nan nan nan nan nan nan nan nan nan nan nan nan nan nan nan nan nan nan nan nan nan nan nan nan nan nan nan nan nan nan nan nan nan nan nan nan nan nan nan nan
nan nan nan nan nan nan nan nan nan nan nan nan nan nan nan nan nan nan nan nan nan nan nan nan nan nan nan nan nan nan nan nan nan nan nan nan nan nan nan nan nan nan nan nan nan nan nan nan nan nan nan nan nan nan nan nan nan nan nan nan nan nan nan nan nan nan nan nan nan nan nan nan nan nan nan nan nan nan nan nan nan nan nan nan nan
nan nan nan nan nan nan nan nan nan nan nan nan nan nan nan nan nan nan nan nan nan nan nan nan nan nan nan nan nan nan nan nan nan nan nan nan nan nan nan nan nan nan nan nan nan nan nan nan nan nan nan nan nan nan nan nan nan nan nan nan nan nan nan nan nan nan nan nan nan nan nan nan nan nan nan nan nan nan nan nan nan nan nan nan nan